Location: Most
(50.5133°N, 13.6207°E)
Time: 00:33:05
(UTC+02:00)

Nauka - Pass Details

Date: 23 September 2021
Orbit: 417 x 423 km, 51.6° (Epoch: 17 October)

Event Time Altitude Azimuth Distance (km) Brightness Sun altitude
Rises 21:40:06 0° 278° (W) 2,365 ? -24.8°
Reaches altitude 10° 21:42:12 10° 280° (W) 1,502 ? -25.1°
Enters shadow 21:44:06 31° 287° (WNW) 770 ? -25.3°
